Weather History for Spokane Fairchild, WA

Change the Weather History Date:

Sunday, June 16, 2013

  Actual Average Record
Temperature  
Mean Temperature 68 °F -  
Max Temperature 82 °F 70 °F 84 °F (2002)
Min Temperature 54 °F 48 °F 42 °F (1998)
Cooling Degree Days 3    
Growing Degree Days 18 (Base 50)    
Moisture  
Dew Point 42 °F    
Average Humidity 40    
Maximum Humidity 64    
Minimum Humidity 20    
Precipitation  
Precipitation 0.00 in - - ()
Sea Level Pressure  
Sea Level Pressure 29.97 in    
Wind  
Wind Speed 4 mph (NNW)    
Max Wind Speed 12 mph    
Max Gust Speed 17 mph    
Visibility 7 miles    
Events      
Averages and records for this station are not official NWS values.
T = Trace of Precipitation, MM = Missing Value Source: NWS Daily Summary

Daily Weather History Graph

Daily Weather History Graph

Search for Another Location

Airport:

Trip Planner

Search our weather history database for the weather conditions in past years. The results will help you decide how hot, cold, wet, or windy it might be!

Date:

Astronomy

Jun. 16, 2013 Rise Set
Actual Time 4:52 AM PDT 8:50 PM PDT
Civil Twilight 4:11 AM PDT 9:31 PM PDT
Nautical Twilight 3:15 AM PDT 10:27 PM PDT
Astronomical Twilight 1:45 AM PDT 11:58 PM PDT
Moon 1:04 PM PDT (6/16) 12:28 AM PDT (6/16)
Length of Visible Light 17h 19m
Length of Day
15h 58m
Waxing Crescent, 51% of the Moon is Illuminated
Jun 16
Waxing Crescent
Jun 23
Full
Jun 29
Last Quarter
Jul 8
New
Jul 15
First Quarter

Hourly Weather History & Observations

Time (PDT) Temp. Dew Point Humidity Pressure Visibility Wind Dir Wind Speed Gust Speed Precip Events Conditions
12:58 AM 58.5 °F 38.1 °F 47% 29.99 in 10.0 mi NNW 3.5 mph - N/A   Clear
1:58 AM 58.8 °F 37.9 °F 46% 29.99 in 10.0 mi NNW 3.5 mph - N/A   Clear
2:58 AM 56.5 °F 37.6 °F 49% 30.00 in 10.0 mi ENE 1.2 mph - N/A   Clear
3:58 AM 54.1 °F 40.5 °F 60% 30.00 in 10.0 mi North 5.8 mph - N/A   Clear
4:58 AM 54.1 °F 39.6 °F 58% 30.00 in 10.0 mi NNE 5.8 mph - N/A   Clear
5:58 AM 57.6 °F 41.2 °F 54% 30.01 in 10.0 mi NE 4.6 mph - N/A   Clear
6:58 AM 60.6 °F 41.4 °F 49% 30.01 in 10.0 mi NE 5.8 mph - N/A   Clear
7:58 AM 63.5 °F 41.9 °F 45% 30.03 in 10.0 mi NNE 5.8 mph - N/A   Clear
8:58 AM 66.7 °F 43.5 °F 43% 30.04 in 10.0 mi North 8.1 mph - N/A   Clear
9:58 AM 71.1 °F 42.6 °F 36% 30.04 in 10.0 mi Variable 2.3 mph - N/A   Mostly Cloudy
10:58 AM 75.0 °F 44.4 °F 34% 30.01 in 10.0 mi NNE 10.4 mph - N/A   Mostly Cloudy
11:58 AM 75.4 °F 42.8 °F 31% 30.02 in 10.0 mi North 5.8 mph 17.3 mph N/A   Overcast
12:58 PM 77.7 °F 42.1 °F 28% 30.01 in 10.0 mi North 10.4 mph - N/A   Overcast
1:19 PM 77.0 °F 41.0 °F 28% 30.02 in 10.0 mi NE 11.5 mph - N/A   Overcast
1:58 PM 79.5 °F 43.0 °F 27% 29.98 in 10.0 mi NE 5.8 mph - N/A   Partly Cloudy
2:58 PM 80.8 °F 41.2 °F 24% 29.97 in 10.0 mi ENE 5.8 mph - N/A   Clear
3:58 PM 82.0 °F 40.1 °F 22% 29.96 in 10.0 mi Variable 6.9 mph - N/A   Clear
4:58 PM 82.2 °F 37.2 °F 20% 29.94 in 10.0 mi NNE 4.6 mph - N/A   Overcast
5:58 PM 81.3 °F 38.8 °F 22% 29.93 in 10.0 mi NNW 5.8 mph - N/A   Partly Cloudy
6:58 PM 80.8 °F 40.3 °F 24% 29.93 in 10.0 mi North 5.8 mph - N/A   Clear
7:58 PM 75.7 °F 39.4 °F 27% 29.93 in 10.0 mi NNW 4.6 mph - N/A   Clear
8:15 PM 73.4 °F 42.8 °F 33% 29.96 in 2.5 mi NW 4.6 mph - N/A   Haze
8:16 PM 73.4 °F 41.0 °F 31% 29.96 in 2.0 mi NW 4.6 mph - N/A   Haze
8:18 PM 73.4 °F 41.0 °F 31% 29.96 in 1.8 mi NNW 3.5 mph - N/A   Haze
8:20 PM 73.4 °F 41.0 °F 31% 29.96 in 1.5 mi NNW 3.5 mph - N/A   Haze
8:26 PM 73.4 °F 41.0 °F 31% 29.96 in 1.8 mi NNW 3.5 mph - N/A   Haze
8:29 PM 75.2 °F 39.2 °F 27% 29.96 in 2.0 mi NNW 2.3 mph - N/A   Haze
8:30 PM 75.2 °F 41.0 °F 29% 29.96 in 2.5 mi NNW 2.3 mph - N/A   Haze
8:32 PM 73.4 °F 41.0 °F 31% 29.96 in 3.0 mi Variable 1.2 mph - N/A   Haze
8:58 PM 73.6 °F 40.3 °F 30% 29.93 in 5.0 mi NNW 4.6 mph - N/A   Haze
9:40 PM 69.8 °F 42.8 °F 38% 29.97 in 3.0 mi SW 2.3 mph - N/A   Haze
9:58 PM 68.5 °F 45.1 °F 43% 29.94 in 3.0 mi SSW 1.2 mph - N/A   Haze
10:02 PM 68.0 °F 44.6 °F 43% 29.97 in 3.0 mi SSW 1.2 mph - N/A   Haze
10:08 PM 68.0 °F 46.4 °F 46% 29.97 in 3.0 mi SSW 2.3 mph - N/A   Haze
10:20 PM 66.2 °F 46.4 °F 49% 29.96 in 3.0 mi SW 2.3 mph - N/A   Haze
10:58 PM 63.3 °F 47.5 °F 56% 29.94 in 4.0 mi WNW 3.5 mph - N/A   Haze
11:09 PM 64.4 °F 46.4 °F 52% 29.96 in 3.0 mi WNW 5.8 mph - N/A   Haze
11:12 PM 64.4 °F 46.4 °F 52% 29.96 in 3.0 mi WNW 4.6 mph - N/A   Haze
11:17 PM 62.6 °F 46.4 °F 55% 29.96 in 5.0 mi Calm Calm - N/A   Haze
11:27 PM 60.8 °F 46.4 °F 59% 29.96 in 5.0 mi West 2.3 mph - N/A   Haze
11:51 PM 60.8 °F 48.2 °F 63% 29.96 in 5.0 mi South 1.2 mph - N/A   Haze
11:58 PM 60.4 °F 48.0 °F 64% 29.94 in 6.0 mi South 3.5 mph - N/A   Haze